Regional Weather Roundup
Issued by NWS

Home | Current Version | Previous Version | Text Only | Print | Product List | Glossary On
Versions: 1 2 3 4 5 6 7 8 9 10 11 12 13 14 15 16 17 18 19 20 21 22 23 24 25 26 27 28 29 30 31 32 33 34 35 36 37 38 39 40 41 42 43 44 45 46 47 48 49 50
533
ASUS45 KBOI 112210
RWRID

IDAHO REGIONAL WEATHER ROUNDUP
NATIONAL WEATHER SERVICE BOISE ID
300 PM MST THU FEB 11 2016

NOTE: "FAIR" INDICATES FEW OR NO CLOUDS BELOW 12000 FEET
WITH NO SIGNIFICANT WEATHER AND/OR OBSTRUCTIONS TO VISIBILITY

IDZ012-014-112300-
SOUTHWEST IDAHO


CITY           SKY/WX    TMP DP  RH WIND       PRES   REMARKS
BOISE          MOSUNNY   46  33  60 CALM      30.34F
CALDWELL       MOSUNNY   45  33  63 SE9       30.35F
$$

IDZ016-017-112300-
SOUTHCENTRAL IDAHO


CITY           SKY/WX    TMP DP  RH WIND       PRES   REMARKS
BURLEY         MOSUNNY   45  32  60 NE12      30.31F
JEROME         MOSUNNY   36  28  73 NE18      30.33F WCI  26
TWIN FALLS     MOSUNNY   43  35  73 NE7       30.32F
$$

IDZ019>023-112300-
SOUTHEAST IDAHO


CITY           SKY/WX    TMP DP  RH WIND       PRES   REMARKS
IDAHO FALLS    CLOUDY    28  23  81 N8        30.38F WCI  20
POCATELLO      CLOUDY    36  25  64 N8        30.38S WCI  30
REXBURG        CLOUDY    33  24  69 NE3       30.37F
$$

IDZ006-010-011-018-031-032-112300-
CENTRAL IDAHO MOUNTAINS


CITY           SKY/WX    TMP DP  RH WIND       PRES   REMARKS
MCCALL         CLOUDY    39  27  62 CALM      30.26F
HAILEY         MOSUNNY   36  28  75 SE6       30.36S WCI  31
STANLEY          N/A     43  20  39 CALM      30.32F
SALMON         CLOUDY    28  19  69 CALM      30.37F
CHALLIS        CLOUDY    31  22  69 CALM      30.33F
$$

IDZ002-004-006-007-026-112300-
NORTHERN IDAHO


CITY           SKY/WX    TMP DP  RH WIND       PRES   REMARKS
LEWISTON       CLOUDY    51  38  60 E13       30.23F
LOWELL           N/A     48  38  68 VRB3      30.27F
COEUR D`ALENE  CLOUDY    43  37  81 NE13      30.25F
MULLAN PASS    CLOUDY    37  27  67 VRB5      30.25F WCI  33
$$




USA.gov is the U.S. government's official web portal to all federal, state and local government web resources and services.